This demonstration page uses our WeatherBlox Daily Observations layout. Learn more.

Left ArrowRight Arrow

Hourly Observations for June 8, 2015

Temp ( °F °C ) Dew Point ( °F °C ) Humidity (%) Winds ( mph kmh ) Pressure ( in mb ) Visibility ( mi km ) Precip ( " mm )
12:59 am 00:59 Partly Cloudy 68 20 56 13.3 65 65 Calm 30.14 1021 10 16 0.00 0.00
1:59 am 01:59 Clear 67 19.4 57 13.9 71 71 Calm 30.12 1020 10 16 0.00 0.00
2:59 am 02:59 Clear 68 20 58 14.4 70 70 VRB 3 6 30.10 1019 10 16 0.00 0.00
3:59 am 03:59 Mostly Clear 68 20 59 15 73 73 VRB 3 6 30.10 1019 10 16 0.00 0.00
4:59 am 04:59 Mostly Clear 68 20 60 15.6 76 76 S 5 7 30.10 1019 10 16 0.00 0.00
5:59 am 05:59 Mostly Cloudy 68 20 60 15.6 76 76 SSW 3 6 30.10 1019 10 16 0.00 0.00
6:59 am 06:59 Mostly Cloudy 70 21.1 61 16.1 73 73 SSW 7 11 30.10 1019 10 16 0.00 0.00
7:59 am 07:59 Mostly Cloudy 74 23.3 62 16.7 67 67 S 7 11 30.10 1019 10 16 0.00 0.00
8:59 am 08:59 Mostly Cloudy 76 24.4 62 16.7 62 62 VRB 6 9 30.10 1019 10 16 0.00 0.00
9:59 am 09:59 Mostly Cloudy 79 26.1 62 16.7 56 56 SW 9 15 30.09 1019 10 16 0.00 0.00
10:59 am 10:59 Mostly Cloudy 82 27.8 62 16.7 51 51 SSW 15 24 30.07 1018 10 16 0.00 0.00
11:59 am 11:59 Mostly Cloudy 85 29.4 63 17.2 48 48 SSW 14 22 30.04 1017 10 16 0.00 0.00
12:59 pm 12:59 Mostly Cloudy 87 30.6 64 17.8 46 46 SSW 10 17 30.02 1017 10 16 0.00 0.00
1:59 pm 13:59 Mostly Cloudy 89 31.7 65 18.3 45 45 S 14 22 29.99 1016 10 16 0.00 0.00
2:59 pm 14:59 Mostly Cloudy 90 32.2 65 18.3 44 44 SW 16 26 29.96 1015 10 16 0.00 0.00
3:59 pm 15:59 Mostly Cloudy 91 32.8 66 18.9 44 44 S 10 17 29.93 1014 10 16 0.00 0.00
4:59 pm 16:59 Mostly Cloudy 90 32.2 65 18.3 44 44 SSW 10 17 29.92 1013 10 16 0.00 0.00
5:59 pm 17:59 Mostly Cloudy 90 32.2 66 18.9 45 45 S 9 15 29.91 1013 10 16 0.00 0.00
6:59 pm 18:59 Partly Cloudy 89 31.7 65 18.3 45 45 SSW 10 17 29.90 1013 10 16 0.00 0.00
7:59 pm 19:59 Mostly Sunny 87 30.6 65 18.3 48 48 S 10 17 29.88 1012 10 16 0.00 0.00
8:59 pm 20:59 Mostly Clear 85 29.4 67 19.4 55 55 S 9 15 29.89 1012 10 16 0.00 0.00
9:59 pm 21:59 Mostly Clear 83 28.3 68 20 61 61 S 10 17 29.92 1013 10 16 0.00 0.00
10:59 pm 22:59 Partly Cloudy 82 27.8 67 19.4 60 60 S 10 17 29.91 1013 10 16 0.00 0.00
11:59 pm 23:59 Mostly Cloudy 81 27.2 67 19.4 62 62 SSW 9 15 29.92 1013 10 16 0.00 0.00

Powered by AerisWeather